Location: Armidale
(30.5016°S, 151.6662°E)
Time: 05:40:12
(UTC+10:00)

Envisat - Pass Details

Date: 27 June 2022
Orbit: 763 x 765 km, 98.2° (Epoch: 09 August)

Event Time Altitude Azimuth Distance (km) Brightness Sun altitude
Rises 17:28:17 0° 189° (S) 3,258 6.1 -6.0°
Reaches altitude 10° 17:31:18 10° 207° (SSW) 2,324 5.6 -6.6°
Maximum altitude 17:34:38 18° 248° (WSW) 1,839 5.6 -7.2°
Drops below altitude 10° 17:37:56 10° 289° (WNW) 2,307 7.2 -7.9°
Sets 17:40:56 0° 307° (NW) 3,224 8.0 -8.5°
